Location: Arrien
(42.8963°N, 1.0429°E)
Time: 15:30:19
(UTC+00:00)

Cosmos 2263 Rocket - Pass Details

Date: 11 December 2025
Orbit: 821 x 849 km, 71.0° (Epoch: 19 January)

Event Time Altitude Azimuth Distance (km) Brightness Sun altitude
Rises 18:21:03 0° 334° (NNW) 3,408 5.5 -21.1°
Reaches altitude 10° 18:23:30 10° 334° (NNW) 2,473 4.8 -21.5°
Maximum altitude 18:29:12 84° 248° (WSW) 858 2.2 -22.5°
Drops below altitude 10° 18:34:52 10° 160° (SSE) 2,465 4.5 -23.6°
Sets 18:37:19 0° 160° (SSE) 3,397 5.2 -24.0°
